Weather in Ivje

Belarus     53°55′51″N   25°46′12″E
temp.,
°C
wind,
m/s
gust,
m/s
humid.,
%
clouds,
%
prec.,
mm/h
press.,
hPa
HPBL,
m
15 april, thu
thu1500:00+5ne61295100 0.3 1016363
03:00+5ne61396100 1.8 1016469
06:00+6ne61296100 3.3 1016512
09:00+5ne51195100 4.4 1017436
12:00+7ne5990100 0.1 1017501
15:00+6nne6986100 0.1 1017531
18:00+5nne51193100 1.6 1016549
21:00+5nne61393100 3.7 1016613
16 april, fri
fri1600:00+5nne61295100 0.8 1015503
03:00+5nne61295100 1.1 1014575
06:00+6ne51196100 0.1 1014363
09:00+6ne51095100 0.2 1015438
12:00+10ene688299 0.0 1015779
15:00+12ne7977100 0.2 10151058
18:00+12ne6979100 0.8 1015855
21:00+9ne6128999 2.5 1017405
17 april, sat
sat1700:00+7ene4994100 0.1 1018279
03:00+7ne499793 0.2 1018263
06:00+7ne379875 0.1 1019259
09:00+8e469092 0.1 1020458
12:00+12e566939 0.0 10211149
15:00+13se576188 0.6 10211287
18:00+13se4759100 0.3 10221549
21:00+8se1179100 0.3 102310
18 april, sun
sun1800:00+8ene3488100 0.0 102494
03:00+9ene3791100 0.1 1023277
06:00+8e3795100 0.4 1024284
09:00+9ene3794100 1.6 1024402
12:00+13ese4775100 0.4 1024995
15:00+15ese576587 0.9 10231284
18:00+14ese596939 1.1 1023980
21:00+11ese388796 1.9 1024211
19 april, mon
mon1900:00+11ese41184100 0.3 1024484
03:00+9ese4108974 0.3 1025295
06:00+9e51280100 0.0 1025397
09:00+10e51273100 0.0 1025576
12:00+12ese796291 0.0 10251494
15:00+12ese61063100 0.0 10241275
18:00+13ese596188 0.0 10231036
21:00+10e397097 0.0 1023244